TimeCDT,TemperatureF,Dew PointF,Humidity,Sea Level PressureIn,VisibilityMPH,Wind Direction,Wind SpeedMPH,Gust SpeedMPH,PrecipitationIn,Events,Conditions,WindDirDegrees,DateUTC
12:57 AM,79.0,73.9,84,29.91,9.0,SE,4.6,-,N/A,,Clear,140,2013-08-03 05:57:00
1:57 AM,79.0,73.9,84,29.91,9.0,SSE,8.1,-,N/A,,Clear,160,2013-08-03 06:57:00
2:57 AM,80.1,73.9,81,29.89,10.0,South,13.8,-,N/A,,Clear,190,2013-08-03 07:57:00
3:57 AM,81.0,73.0,77,29.90,10.0,SSW,12.7,-,N/A,,Overcast,200,2013-08-03 08:57:00
4:57 AM,80.1,73.0,79,29.94,10.0,West,8.1,-,N/A,,Overcast,280,2013-08-03 09:57:00
5:28 AM,78.8,73.4,83,30.02,7.0,WNW,8.1,-,0.02,,Overcast,290,2013-08-03 10:28:00
5:31 AM,78.8,73.4,83,30.02,7.0,West,10.4,-,0.02,Thunderstorm,Overcast,280,2013-08-03 10:31:00
5:34 AM,78.8,73.4,83,30.02,7.0,WNW,10.4,-,0.02,Thunderstorm,Overcast,290,2013-08-03 10:34:00
5:38 AM,78.8,73.4,83,30.03,7.0,WNW,9.2,-,0.02,Thunderstorm,Overcast,300,2013-08-03 10:38:00
5:52 AM,73.4,69.8,88,30.07,5.0,North,15.0,29.9,0.09,Rain-Thunderstorm,Heavy Thunderstorms and Rain,360,2013-08-03 10:52:00
5:57 AM,71.6,68.0,88,30.09,4.0,North,12.7,26.5,0.19,Rain-Thunderstorm,Heavy Thunderstorms and Rain,360,2013-08-03 10:57:00
5:59 AM,71.6,68.0,88,30.09,3.0,North,11.5,26.5,0.28,Rain-Thunderstorm,Heavy Thunderstorms and Rain,360,2013-08-03 10:59:00
6:01 AM,71.1,68.0,90,-9999,3.0,North,15.0,26.5,0.33,Rain-Thunderstorm,Heavy Thunderstorms and Rain,10,2013-08-03 11:01:00
6:03 AM,69.8,68.0,94,30.10,1.8,North,-9999.0,-,N/A,Rain-Thunderstorm,Heavy Thunderstorms and Rain,0,2013-08-03 11:03:00
6:11 AM,69.8,68.0,94,30.11,1.5,North,11.5,20.7,N/A,Rain-Thunderstorm,Heavy Thunderstorms and Rain,360,2013-08-03 11:11:00
6:14 AM,69.8,68.0,94,30.11,2.0,NNE,12.7,20.7,N/A,Rain-Thunderstorm,Heavy Thunderstorms and Rain,20,2013-08-03 11:14:00
6:34 AM,69.8,66.2,88,30.11,3.0,NNE,15.0,23.0,N/A,Rain-Thunderstorm,Heavy Thunderstorms and Rain,30,2013-08-03 11:34:00
6:57 AM,69.1,66.9,93,30.11,4.0,Variable,3.5,17.3,N/A,Rain-Thunderstorm,Heavy Thunderstorms and Rain,0,2013-08-03 11:57:00
7:04 AM,69.8,66.2,88,30.15,2.0,East,6.9,-,0.20,Rain-Thunderstorm,Heavy Thunderstorms and Rain,80,2013-08-03 12:04:00
7:13 AM,69.8,66.2,88,30.13,4.0,East,13.8,-,0.32,Rain-Thunderstorm,Heavy Thunderstorms and Rain,100,2013-08-03 12:13:00
7:27 AM,68.0,66.2,94,30.14,2.0,ENE,12.7,-,0.55,Rain-Thunderstorm,Heavy Thunderstorms and Rain,60,2013-08-03 12:27:00
7:32 AM,68.0,66.2,94,30.13,1.8,NE,15.0,20.7,0.74,Rain-Thunderstorm,Heavy Thunderstorms and Rain,50,2013-08-03 12:32:00
7:36 AM,68.0,66.2,94,30.13,1.8,ENE,18.4,-,0.83,Rain-Thunderstorm,Heavy Thunderstorms and Rain,60,2013-08-03 12:36:00
7:42 AM,68.0,66.2,94,30.13,2.0,ENE,15.0,-,0.91,Rain-Thunderstorm,Heavy Thunderstorms and Rain,60,2013-08-03 12:42:00
7:53 AM,68.0,66.2,94,30.13,3.0,East,17.3,20.7,1.00,Rain-Thunderstorm,Heavy Thunderstorms and Rain,90,2013-08-03 12:53:00
7:57 AM,68.0,66.0,93,30.09,4.0,East,13.8,-,1.01,Rain-Thunderstorm,Thunderstorms and Rain,80,2013-08-03 12:57:00
8:08 AM,68.0,66.2,94,30.13,2.0,East,11.5,-,0.11,Rain-Thunderstorm,Heavy Thunderstorms and Rain,80,2013-08-03 13:08:00
8:23 AM,68.0,66.2,94,30.14,3.0,East,8.1,-,0.18,Rain-Thunderstorm,Heavy Thunderstorms and Rain,100,2013-08-03 13:23:00
8:34 AM,69.8,66.2,88,30.13,10.0,East,12.7,-,0.19,Rain-Thunderstorm,Light Rain,100,2013-08-03 13:34:00
8:38 AM,69.8,66.2,88,30.13,10.0,East,13.8,-,0.19,Rain,Light Rain,90,2013-08-03 13:38:00
8:46 AM,69.8,66.2,88,30.13,10.0,ESE,13.8,23.0,0.20,Rain-Thunderstorm,Light Rain,110,2013-08-03 13:46:00
8:57 AM,69.1,66.9,93,30.12,10.0,SSW,9.2,-,0.20,Rain-Thunderstorm,Light Rain,200,2013-08-03 13:57:00
9:18 AM,69.8,66.2,88,30.15,10.0,SE,9.2,-,0.03,Rain,Light Rain,130,2013-08-03 14:18:00
9:57 AM,69.1,66.0,90,30.08,10.0,ESE,13.8,-,0.04,,Mostly Cloudy,120,2013-08-03 14:57:00
10:57 AM,70.0,66.9,90,30.09,10.0,ESE,12.7,-,N/A,,Partly Cloudy,120,2013-08-03 15:57:00
11:57 AM,72.0,68.0,87,30.08,10.0,SSE,8.1,-,N/A,,Clear,160,2013-08-03 16:57:00
12:57 PM,77.0,69.1,76,-9999,-9999.0,North,-9999.0,-,N/A,,Unknown,0,2013-08-03 17:57:00
1:57 PM,-9999,-9999,N/A,-9999,-9999.0,North,-9999.0,-,N/A,,Unknown,0,2013-08-03 18:57:00
2:57 PM,86.0,69.1,57,30.02,10.0,West,6.9,-,N/A,,Unknown,260,2013-08-03 19:57:00
3:57 PM,84.0,70.0,63,30.01,10.0,North,3.5,-,N/A,,Clear,360,2013-08-03 20:57:00
4:57 PM,86.0,71.1,61,30.02,10.0,Calm,Calm,-,0.00,,Clear,0,2013-08-03 21:57:00
5:57 PM,84.9,72.0,65,30.03,10.0,Calm,Calm,-,N/A,,Clear,0,2013-08-03 22:57:00
6:57 PM,82.9,73.9,74,30.03,10.0,Calm,Calm,-,N/A,,Clear,0,2013-08-03 23:57:00
7:57 PM,81.0,73.9,79,30.05,10.0,NNE,3.5,-,N/A,,Mostly Cloudy,30,2013-08-04 00:57:00
8:57 PM,80.1,73.9,81,30.06,10.0,Calm,Calm,-,N/A,,Partly Cloudy,0,2013-08-04 01:57:00
9:57 PM,80.1,73.0,79,30.08,10.0,ENE,3.5,-,N/A,,Mostly Cloudy,60,2013-08-04 02:57:00
10:57 PM,78.1,73.0,84,30.09,10.0,East,6.9,-,N/A,,Partly Cloudy,100,2013-08-04 03:57:00
11:57 PM,77.0,73.9,90,30.09,10.0,East,5.8,-,N/A,,Partly Cloudy,100,2013-08-04 04:57:00